When you browse on this site, cookies collect data to enhance your experience and personalize the content and advertising you see.
Visit our Privacy Policy to learn more. By continuing to use the site, you agree to this use of cookies and data.
  • In Sweden
  • List of Countries
  • For 7 days
  • Water Temperature
  • Weather Map
  • Weather Widgets
  • user-avatar
    Login

    Hourly Weather Hadera

    Today, 31 March, Tuesday

    Time Temperature Precipitation Wind Pressure Humidity
    00:00 +13°C° 0 mm 4 mps 714 mmHg 59%
    01:00 +13°C° 0 mm 4 mps 714 mmHg 57%
    02:00 +14°C° 0 mm 4 mps 713 mmHg 53%
    03:00 +13°C° 0 mm 4 mps 713 mmHg 55%
    04:00 +13°C° 0 mm 4 mps 713 mmHg 56%
    05:00 +13°C° 0 mm 4 mps 712 mmHg 58%
    06:00 +14°C° 0 mm 4 mps 712 mmHg 55%
    07:00 +15°C° 0 mm 5 mps 712 mmHg 52%
    08:00 +17°C° 0 mm 6 mps 713 mmHg 49%
    09:00 +18°C° 0 mm 8 mps 712 mmHg 45%
    10:00 +19°C° 0 mm 9 mps 712 mmHg 41%
    11:00 +22°C° 0 mm 11 mps 712 mmHg 37%
    12:00 +21°C° 0 mm 12 mps 711 mmHg 38%
    13:00 +21°C° 0 mm 12 mps 711 mmHg 39%
    14:00 +20°C° 0 mm 13 mps 710 mmHg 41%
    15:00 +19°C° 0 mm 11 mps 710 mmHg 45%
    16:00 +18°C° 0 mm 10 mps 710 mmHg 49%
    17:00 +17°C° 0 mm 8 mps 709 mmHg 54%
    18:00 +16°C° 0.5 mm 7 mps 709 mmHg 66%
    19:00 +14°C° 0.5 mm 6 mps 709 mmHg 79%
    20:00 +12°C° 0.5 mm 5 mps 710 mmHg 92%
    21:00 +12°C° 1 mm 4 mps 710 mmHg 91%
    22:00 +12°C° 1 mm 4 mps 710 mmHg 91%
    23:00 +12°C° 1 mm 4 mps 710 mmHg 90%

    Tomorrow, 1 April, Wednesday

    Time Temperature Precipitation Wind Pressure Humidity
    00:00 +12°C° 0.2 mm 3 mps 710 mmHg 90%
    01:00 +11°C° 0.2 mm 3 mps 710 mmHg 90%
    02:00 +11°C° 0.2 mm 3 mps 710 mmHg 90%
    03:00 +11°C° 0 mm 3 mps 710 mmHg 90%
    04:00 +11°C° 0 mm 4 mps 711 mmHg 90%
    05:00 +11°C° 0 mm 4 mps 711 mmHg 90%
    06:00 +12°C° 0 mm 4 mps 711 mmHg 85%
    07:00 +13°C° 0 mm 4 mps 712 mmHg 80%
    08:00 +14°C° 0 mm 4 mps 712 mmHg 75%
    09:00 +15°C° 0 mm 4 mps 713 mmHg 71%
    10:00 +15°C° 0 mm 4 mps 714 mmHg 68%
    11:00 +16°C° 0 mm 5 mps 714 mmHg 64%
    12:00 +16°C° 0 mm 5 mps 714 mmHg 64%
    13:00 +16°C° 0 mm 6 mps 714 mmHg 64%
    14:00 +16°C° 0 mm 6 mps 714 mmHg 64%
    15:00 +15°C° 0 mm 6 mps 714 mmHg 67%
    16:00 +14°C° 0 mm 6 mps 714 mmHg 70%
    17:00 +14°C° 0 mm 6 mps 714 mmHg 72%
    18:00 +13°C° 0 mm 5 mps 714 mmHg 77%
    19:00 +12°C° 0 mm 5 mps 714 mmHg 82%
    20:00 +11°C° 0 mm 4 mps 714 mmHg 87%
    21:00 +11°C° 0 mm 4 mps 714 mmHg 87%
    22:00 +10°C° 0 mm 5 mps 714 mmHg 86%
    23:00 +9°C° 0 mm 5 mps 714 mmHg 85%

    Day after tomorrow, 2 April, Thursday

    Time Temperature Precipitation Wind Pressure Humidity
    00:00 +9°C° 0 mm 5 mps 714 mmHg 86%
    01:00 +9°C° 0 mm 5 mps 714 mmHg 86%
    02:00 +9°C° 0 mm 6 mps 714 mmHg 87%
    03:00 +9°C° 0 mm 5 mps 714 mmHg 87%
    04:00 +9°C° 0 mm 5 mps 714 mmHg 87%
    05:00 +10°C° 0 mm 4 mps 714 mmHg 88%
    06:00 +11°C° 0 mm 4 mps 715 mmHg 83%
    07:00 +12°C° 0 mm 4 mps 715 mmHg 79%
    08:00 +13°C° 0 mm 4 mps 716 mmHg 74%
    09:00 +13°C° 0 mm 4 mps 716 mmHg 71%
    10:00 +14°C° 0 mm 5 mps 716 mmHg 68%
    11:00 +15°C° 0 mm 5 mps 716 mmHg 64%
    12:00 +15°C° 0 mm 5 mps 716 mmHg 64%
    13:00 +15°C° 0 mm 6 mps 716 mmHg 64%
    14:00 +15°C° 0 mm 6 mps 716 mmHg 64%
    15:00 +14°C° 0 mm 6 mps 716 mmHg 69%
    16:00 +13°C° 0 mm 6 mps 716 mmHg 75%
    17:00 +13°C° 0 mm 6 mps 716 mmHg 81%
    18:00 +12°C° 0 mm 5 mps 716 mmHg 83%
    19:00 +12°C° 0 mm 5 mps 716 mmHg 85%
    20:00 +12°C° 0 mm 4 mps 716 mmHg 87%
    21:00 +12°C° 0.1 mm 5 mps 716 mmHg 87%
    22:00 +12°C° 0.1 mm 5 mps 716 mmHg 88%
    23:00 +11°C° 0.1 mm 6 mps 716 mmHg 88%

    3 April, Friday

    Time Temperature Precipitation Wind Pressure Humidity
    00:00 +10°C° 0.2 mm 6 mps 716 mmHg 89%
    01:00 +10°C° 0.2 mm 6 mps 716 mmHg 90%
    02:00 +10°C° 0.2 mm 6 mps 715 mmHg 91%
    03:00 +10°C° 0.1 mm 6 mps 715 mmHg 90%
    04:00 +10°C° 0.1 mm 5 mps 715 mmHg 89%
    05:00 +9°C° 0.1 mm 5 mps 715 mmHg 89%
    06:00 +10°C° 0 mm 5 mps 716 mmHg 84%
    07:00 +10°C° 0 mm 5 mps 716 mmHg 79%
    08:00 +12°C° 0 mm 5 mps 717 mmHg 74%
    09:00 +12°C° 0 mm 5 mps 717 mmHg 68%
    10:00 +13°C° 0 mm 6 mps 717 mmHg 61%
    11:00 +14°C° 0 mm 6 mps 717 mmHg 54%
    12:00 +14°C° 0 mm 6 mps 717 mmHg 56%
    13:00 +14°C° 0 mm 6 mps 717 mmHg 57%
    14:00 +14°C° 0 mm 6 mps 717 mmHg 58%
    15:00 +14°C° 0 mm 5 mps 717 mmHg 59%
    16:00 +13°C° 0 mm 5 mps 717 mmHg 60%
    17:00 +13°C° 0 mm 4 mps 716 mmHg 61%
    18:00 +12°C° 0 mm 4 mps 717 mmHg 67%
    19:00 +11°C° 0 mm 3 mps 717 mmHg 73%
    20:00 +10°C° 0 mm 3 mps 717 mmHg 79%
    21:00 +10°C° 0 mm 3 mps 718 mmHg 76%
    22:00 +10°C° 0 mm 2 mps 718 mmHg 72%
    23:00 +10°C° 0 mm 2 mps 718 mmHg 68%

    4 April, Saturday

    Time Temperature Precipitation Wind Pressure Humidity
    00:00 +12°C° 0 mm 2 mps 718 mmHg 63%
    01:00 +12°C° 0 mm 1 mps 718 mmHg 58%
    02:00 +13°C° 0 mm 1 mps 718 mmHg 53%
    03:00 +12°C° 0 mm 1 mps 718 mmHg 56%
    04:00 +12°C° 0 mm 1 mps 718 mmHg 59%
    05:00 +11°C° 0 mm 1 mps 718 mmHg 62%
    06:00 +13°C° 0 mm 2 mps 718 mmHg 59%
    07:00 +15°C° 0 mm 2 mps 719 mmHg 55%
    08:00 +16°C° 0 mm 3 mps 720 mmHg 52%
    09:00 +17°C° 0 mm 3 mps 720 mmHg 51%
    10:00 +18°C° 0 mm 3 mps 720 mmHg 50%
    11:00 +19°C° 0 mm 3 mps 720 mmHg 48%
    12:00 +19°C° 0 mm 3 mps 720 mmHg 49%
    13:00 +19°C° 0 mm 3 mps 720 mmHg 50%
    14:00 +19°C° 0 mm 3 mps 720 mmHg 50%
    15:00 +19°C° 0 mm 2 mps 720 mmHg 52%
    16:00 +19°C° 0 mm 2 mps 719 mmHg 54%
    17:00 +19°C° 0 mm 2 mps 719 mmHg 56%
    18:00 +18°C° 0 mm 2 mps 719 mmHg 59%
    19:00 +17°C° 0 mm 2 mps 720 mmHg 63%
    20:00 +16°C° 0 mm 3 mps 720 mmHg 66%
    21:00 +16°C° 0 mm 3 mps 719 mmHg 63%
    22:00 +16°C° 0 mm 3 mps 719 mmHg 59%
    23:00 +17°C° 0 mm 3 mps 719 mmHg 56%

    5 April, Sunday

    Time Temperature Precipitation Wind Pressure Humidity
    00:00 +17°C° 0 mm 4 mps 719 mmHg 52%
    01:00 +17°C° 0 mm 4 mps 718 mmHg 49%
    02:00 +17°C° 0 mm 4 mps 718 mmHg 46%
    03:00 +17°C° 0 mm 4 mps 718 mmHg 44%
    04:00 +16°C° 0 mm 5 mps 717 mmHg 43%
    05:00 +16°C° 0 mm 6 mps 717 mmHg 42%
    06:00 +17°C° 0 mm 6 mps 718 mmHg 41%
    07:00 +19°C° 0 mm 6 mps 718 mmHg 41%
    08:00 +20°C° 0 mm 6 mps 718 mmHg 40%
    09:00 +22°C° 0 mm 7 mps 718 mmHg 36%
    10:00 +24°C° 0 mm 9 mps 718 mmHg 32%
    11:00 +26°C° 0 mm 10 mps 718 mmHg 28%
    12:00 +26°C° 0 mm 11 mps 717 mmHg 29%
    13:00 +26°C° 0 mm 11 mps 717 mmHg 29%
    14:00 +26°C° 0 mm 12 mps 716 mmHg 29%
    15:00 +24°C° 0 mm 11 mps 715 mmHg 32%
    16:00 +23°C° 0 mm 10 mps 715 mmHg 34%
    17:00 +22°C° 0 mm 9 mps 714 mmHg 36%
    18:00 +22°C° 0 mm 9 mps 714 mmHg 37%
    19:00 +21°C° 0 mm 8 mps 714 mmHg 37%
    20:00 +20°C° 0 mm 7 mps 713 mmHg 38%
    21:00 +20°C° 0 mm 7 mps 713 mmHg 39%
    22:00 +20°C° 0 mm 6 mps 713 mmHg 40%
    23:00 +20°C° 0 mm 5 mps 713 mmHg 41%
    Show more